• In Lithuania
  • List of Countries
  • For 7 days
  • Water Temperature
  • Satellite Maps
  • Weather Map
  • Weather Widgets
  • user-avatar
    Login

    Hourly Weather Uige

    Today, 20 August, Monday

    Time Temperature Precipitation Wind Pressure Humidity
    00:00 +20°C° 0 mm 2 mps 693 mmHg 83%
    01:00 +19°C° 0 mm 2 mps 693 mmHg 87%
    02:00 +19°C° 0 mm 2 mps 693 mmHg 87%
    03:00 +19°C° 0 mm 2 mps 693 mmHg 87%
    04:00 +19°C° 0 mm 2 mps 693 mmHg 86%
    05:00 +20°C° 0 mm 2 mps 693 mmHg 85%
    06:00 +20°C° 0 mm 2 mps 693 mmHg 84%
    07:00 +20°C° 0 mm 2 mps 694 mmHg 83%
    08:00 +21°C° 0 mm 2 mps 694 mmHg 79%
    09:00 +23°C° 0 mm 2 mps 694 mmHg 74%
    10:00 +24°C° 0 mm 2 mps 694 mmHg 69%
    11:00 +26°C° 0 mm 2 mps 694 mmHg 61%
    12:00 +28°C° 0 mm 2 mps 693 mmHg 53%
    13:00 +30°C° 0 mm 2 mps 693 mmHg 44%
    14:00 +31°C° 0 mm 2 mps 693 mmHg 42%
    15:00 +31°C° 0 mm 2 mps 692 mmHg 41%
    16:00 +31°C° 0 mm 2 mps 692 mmHg 40%
    17:00 +29°C° 0 mm 2 mps 692 mmHg 45%
    18:00 +28°C° 0 mm 2 mps 692 mmHg 50%
    19:00 +26°C° 0 mm 2 mps 692 mmHg 56%
    20:00 +25°C° 0 mm 2 mps 692 mmHg 60%
    21:00 +24°C° 0 mm 2 mps 692 mmHg 65%
    22:00 +24°C° 0 mm 2 mps 693 mmHg 69%
    23:00 +23°C° 0 mm 2 mps 693 mmHg 74%

    Tomorrow, 21 August, Tuesday

    Time Temperature Precipitation Wind Pressure Humidity
    00:00 +21°C° 0 mm 2 mps 692 mmHg 78%
    01:00 +20°C° 0 mm 2 mps 692 mmHg 82%
    02:00 +20°C° 0 mm 2 mps 692 mmHg 85%
    03:00 +19°C° 0 mm 2 mps 692 mmHg 87%
    04:00 +19°C° 0 mm 2 mps 692 mmHg 90%
    05:00 +19°C° 0 mm 2 mps 692 mmHg 88%
    06:00 +19°C° 0 mm 2 mps 692 mmHg 86%
    07:00 +20°C° 0 mm 2 mps 693 mmHg 84%
    08:00 +23°C° 0 mm 2 mps 693 mmHg 73%
    09:00 +25°C° 0 mm 2 mps 694 mmHg 61%
    10:00 +28°C° 0 mm 2 mps 694 mmHg 50%
    11:00 +30°C° 0 mm 2 mps 694 mmHg 42%
    12:00 +32°C° 0 mm 2 mps 694 mmHg 35%
    13:00 +36°C° 0 mm 2 mps 693 mmHg 28%
    14:00 +35°C° 0 mm 2 mps 692 mmHg 27%
    15:00 +35°C° 0 mm 2 mps 692 mmHg 27%
    16:00 +35°C° 0 mm 2 mps 691 mmHg 26%
    17:00 +32°C° 0 mm 2 mps 691 mmHg 31%
    18:00 +30°C° 0 mm 2 mps 691 mmHg 36%
    19:00 +28°C° 0 mm 2 mps 691 mmHg 41%
    20:00 +27°C° 0 mm 2 mps 692 mmHg 49%
    21:00 +25°C° 0 mm 2 mps 692 mmHg 57%
    22:00 +24°C° 0 mm 2 mps 692 mmHg 64%
    23:00 +23°C° 0 mm 2 mps 692 mmHg 70%

    Day after tomorrow, 22 August, Wednesday

    Time Temperature Precipitation Wind Pressure Humidity
    00:00 +21°C° 0 mm 2 mps 692 mmHg 76%
    01:00 +20°C° 0 mm 2 mps 692 mmHg 81%
    02:00 +20°C° 0 mm 2 mps 691 mmHg 83%
    03:00 +20°C° 0 mm 2 mps 691 mmHg 84%
    04:00 +19°C° 0 mm 2 mps 691 mmHg 86%
    05:00 +19°C° 0 mm 2 mps 691 mmHg 85%
    06:00 +19°C° 0 mm 2 mps 691 mmHg 84%
    07:00 +19°C° 0 mm 2 mps 692 mmHg 83%
    08:00 +23°C° 0 mm 2 mps 692 mmHg 69%
    09:00 +26°C° 0 mm 2 mps 693 mmHg 54%
    10:00 +29°C° 0 mm 2 mps 694 mmHg 40%
    11:00 +31°C° 0 mm 2 mps 694 mmHg 35%
    12:00 +34°C° 0 mm 2 mps 693 mmHg 30%
    13:00 +36°C° 0 mm 2 mps 692 mmHg 24%
    14:00 +36°C° 0 mm 3 mps 692 mmHg 24%
    15:00 +35°C° 0 mm 3 mps 691 mmHg 24%
    16:00 +35°C° 0 mm 3 mps 691 mmHg 24%
    17:00 +33°C° 0 mm 3 mps 691 mmHg 28%
    18:00 +30°C° 0 mm 3 mps 691 mmHg 33%
    19:00 +28°C° 0 mm 3 mps 692 mmHg 37%
    20:00 +27°C° 0 mm 3 mps 692 mmHg 45%
    21:00 +25°C° 0 mm 2 mps 693 mmHg 52%
    22:00 +23°C° 0 mm 2 mps 693 mmHg 60%
    23:00 +21°C° 0 mm 2 mps 693 mmHg 66%

    23 August, Thursday

    Time Temperature Precipitation Wind Pressure Humidity
    00:00 +21°C° 0 mm 2 mps 692 mmHg 72%
    01:00 +20°C° 0 mm 2 mps 692 mmHg 78%
    02:00 +19°C° 0 mm 2 mps 692 mmHg 80%
    03:00 +19°C° 0 mm 2 mps 691 mmHg 82%
    04:00 +18°C° 0 mm 2 mps 691 mmHg 84%
    05:00 +19°C° 0 mm 1 mps 691 mmHg 82%
    06:00 +19°C° 0 mm 1 mps 692 mmHg 81%
    07:00 +20°C° 0 mm 1 mps 692 mmHg 80%
    08:00 +23°C° 0 mm 1 mps 693 mmHg 64%
    09:00 +26°C° 0 mm 2 mps 693 mmHg 48%
    10:00 +30°C° 0 mm 2 mps 694 mmHg 32%
    11:00 +31°C° 0 mm 2 mps 693 mmHg 28%
    12:00 +34°C° 0 mm 2 mps 693 mmHg 23%
    13:00 +36°C° 0 mm 2 mps 692 mmHg 19%
    14:00 +36°C° 0 mm 3 mps 691 mmHg 19%
    15:00 +35°C° 0 mm 3 mps 691 mmHg 20%
    16:00 +35°C° 0 mm 3 mps 690 mmHg 20%
    17:00 +33°C° 0 mm 3 mps 691 mmHg 24%
    18:00 +30°C° 0 mm 3 mps 691 mmHg 27%
    19:00 +28°C° 0 mm 3 mps 691 mmHg 31%
    20:00 +26°C° 0 mm 2 mps 692 mmHg 38%
    21:00 +25°C° 0 mm 2 mps 692 mmHg 44%
    22:00 +23°C° 0 mm 2 mps 692 mmHg 51%
    23:00 +23°C° 0 mm 2 mps 692 mmHg 56%

    24 August, Friday

    Time Temperature Precipitation Wind Pressure Humidity
    00:00 +21°C° 0 mm 2 mps 692 mmHg 62%
    01:00 +21°C° 0 mm 1 mps 691 mmHg 67%
    02:00 +20°C° 0 mm 1 mps 691 mmHg 71%
    03:00 +19°C° 0 mm 1 mps 691 mmHg 75%
    04:00 +19°C° 0 mm 1 mps 690 mmHg 79%
    05:00 +19°C° 0 mm 1 mps 691 mmHg 78%
    06:00 +19°C° 0 mm 1 mps 691 mmHg 77%
    07:00 +19°C° 0 mm 1 mps 692 mmHg 76%
    08:00 +23°C° 0 mm 1 mps 692 mmHg 59%
    09:00 +26°C° 0 mm 1 mps 693 mmHg 42%
    10:00 +30°C° 0 mm 2 mps 694 mmHg 25%
    11:00 +32°C° 0 mm 2 mps 693 mmHg 22%
    12:00 +34°C° 0 mm 2 mps 693 mmHg 18%
    13:00 +36°C° 0 mm 2 mps 692 mmHg 15%
    14:00 +36°C° 0 mm 3 mps 691 mmHg 15%
    15:00 +35°C° 0 mm 3 mps 691 mmHg 16%
    16:00 +35°C° 0 mm 3 mps 690 mmHg 16%
    17:00 +33°C° 0 mm 3 mps 691 mmHg 19%
    18:00 +30°C° 0 mm 3 mps 691 mmHg 22%
    19:00 +28°C° 0 mm 3 mps 691 mmHg 25%
    20:00 +26°C° 0 mm 2 mps 692 mmHg 32%
    21:00 +25°C° 0 mm 2 mps 692 mmHg 38%
    22:00 +23°C° 0 mm 2 mps 692 mmHg 44%
    23:00 +21°C° 0 mm 2 mps 692 mmHg 50%

    25 August, Saturday

    Time Temperature Precipitation Wind Pressure Humidity
    00:00 +20°C° 0 mm 2 mps 692 mmHg 56%
    01:00 +20°C° 0 mm 1 mps 691 mmHg 62%
    02:00 +20°C° 0 mm 1 mps 691 mmHg 66%
    03:00 +19°C° 0 mm 1 mps 691 mmHg 70%
    04:00 +18°C° 0 mm 1 mps 691 mmHg 74%
    05:00 +19°C° 0 mm 1 mps 691 mmHg 72%
    06:00 +19°C° 0 mm 1 mps 692 mmHg 70%
    07:00 +19°C° 0 mm 1 mps 692 mmHg 69%
    08:00 +23°C° 0 mm 1 mps 693 mmHg 52%
    09:00 +27°C° 0 mm 1 mps 694 mmHg 36%
    10:00 +31°C° 0 mm 2 mps 695 mmHg 20%
    11:00 +32°C° 0 mm 2 mps 694 mmHg 18%
    12:00 +35°C° 0 mm 2 mps 693 mmHg 16%
    13:00 +36°C° 0 mm 3 mps 692 mmHg 14%
    14:00 +36°C° 0 mm 3 mps 692 mmHg 14%
    15:00 +36°C° 0 mm 3 mps 691 mmHg 15%
    16:00 +35°C° 0 mm 3 mps 691 mmHg 16%
    17:00 +33°C° 0 mm 3 mps 691 mmHg 20%
    18:00 +30°C° 0 mm 3 mps 692 mmHg 24%
    19:00 +28°C° 0 mm 3 mps 692 mmHg 28%
    20:00 +26°C° 0 mm 3 mps 692 mmHg 36%
    21:00 +25°C° 0 mm 2 mps 692 mmHg 44%
    22:00 +23°C° 0 mm 2 mps 693 mmHg 52%
    23:00 +21°C° 0 mm 2 mps 692 mmHg 58%
    Show more